COSMOS 2413 (712) 1 28509U 04053B 10244.19642840 .00000062 00000-0 10000-3 0 5786 2 28509 63.5967 265.7385 0006621 182.4090 275.5534 2.13098218 44213 COSMOS 2419 (714) 1 28915U 05050A 10245.17380766 .00000005 00000-0 10000-3 0 3088 2 28915 64.8638 149.1682 0007737 339.1147 163.6210 2.13074989 36488 COSMOS 2418 (713) 1 28916U 05050B 10243.14647830 .00000015 00000-0 10000-3 0 2161 2 28916 64.8852 149.2707 0018222 338.3691 21.6078 2.13104960 36446 COSMOS 2425 (716) 1 29670U 06062A 10244.50350845 -.00000012 00000-0 10000-3 0 189 2 29670 65.6285 28.0494 0020982 353.3702 357.0804 2.13100973 28664 COSMOS 2426 (717) 1 29671U 06062B 10244.19462888 -.00000012 00000-0 10000-3 0 355 2 29671 65.6438 28.0963 0019945 164.4234 177.1096 2.13103463 28665 COSMOS 2424 (715) 1 29672U 06062C 10244.42393073 -.00000012 00000-0 10000-3 0 452 2 29672 65.6311 28.0569 0017719 162.7392 174.9800 2.13103551 28667 COSMOS 2433 (720) 1 32275U 07052A 10244.40315295 .00000008 00000-0 00000+0 0 7796 2 32275 64.8771 148.9356 0002697 272.9498 195.6946 2.13102362 22188 COSMOS 2432 (719) 1 32276U 07052B 10244.51634773 .00000007 00000-0 10000-3 0 7574 2 32276 64.8907 148.9625 0014600 339.3379 170.1695 2.13102148 22183 COSMOS 2431 (718) 1 32277U 07052C 10245.23393819 .00000004 00000-0 00000+0 0 7659 2 32277 64.8936 148.9343 0018232 193.0235 282.5660 2.13102266 22286 COSMOS 2434 (721) 1 32393U 07065A 10244.40715624 -.00000012 00000-0 00000+0 0 6099 2 32393 65.2510 28.3720 0006765 125.1812 242.5148 2.13103106 20899 COSMOS 2435 (722) 1 32394U 07065B 10243.88147216 -.00000014 00000-0 00000-0 0 5123 2 32394 65.2507 28.3926 0004189 102.9843 42.1250 2.13103194 20816 COSMOS 2436 (723) 1 32395U 07065C 10244.32911690 -.00000012 00000-0 10000-3 0 5277 2 32395 65.2643 28.3839 0015925 0.7835 38.1543 2.13103261 20823 COSMOS 2442 (724) 1 33378U 08046A 10244.35342309 .00000008 00000-0 10000-3 0 5518 2 33378 64.7902 148.5325 0027411 335.5214 139.4463 2.13102360 15048 COSMOS 2443 (725) 1 33379U 08046B 10244.52298235 .00000007 00000-0 10000-3 0 5403 2 33379 64.7993 148.5650 0020470 184.2730 286.3754 2.13102432 15056 COSMOS 2444 (726) 1 33380U 08046C 10245.13055404 .00000005 00000-0 10000-3 0 5411 2 33380 64.8079 148.5583 0028742 328.1202 203.9198 2.13102874 15059 COSMOS 2447 (727) 1 33466U 08067A 10245.25281115 .00000065 00000-0 00000+0 0 4849 2 33466 64.4479 268.9694 0006344 246.9498 121.9836 2.13101836 13123 COSMOS 2449 (729) 1 33467U 08067B 10244.24642459 .00000058 00000-0 00000+0 0 4886 2 33467 64.4370 268.9855 0005985 259.7131 192.6982 2.13101992 13129 COSMOS 2448 (728) 1 33468U 08067C 10244.43875979 .00000060 00000-0 00000+0 0 4808 2 33468 64.4407 268.9814 0006152 279.9871 228.9259 2.13101550 13117 COSMOS 2456 (730) 1 36111U 09070A 10244.23274282 .00000059 00000-0 00000+0 0 2322 2 36111 64.6737 268.9433 0005693 287.5902 109.6473 2.13101866 5551 COSMOS 2457 (733) 1 36112U 09070B 10244.27683802 .00000059 00000-0 00000+0 0 2183 2 36112 64.6574 268.9111 0014461 163.0388 133.1373 2.13101864 5552 COSMOS 2458 (734) 1 36113U 09070C 10243.67918412 .00000055 00000-0 10000-3 0 2153 2 36113 64.6611 268.9266 0001846 235.5999 277.0823 2.13101987 5545 COSMOS 2459 (731) 1 36400U 10007A 10245.13055405 .00000005 00000-0 10000-3 0 1616 2 36400 64.7761 148.3478 0033329 351.8812 179.6664 2.13102767 3921 COSMOS 2461 (735) 1 36401U 10007B 10245.18563068 .00000005 00000-0 10000-3 0 1600 2 36401 64.7680 148.3451 0004499 96.5775 27.3939 2.13102874 3923 COSMOS 2460 (732) 1 36402U 10007C 10244.20759431 .00000009 00000-0 10000-3 0 1653 2 36402 64.7583 148.3816 0000894 231.5125 266.9544 2.13102406 3908